Regional Weather Roundup
Issued by NWS

Home | Current Version | Previous Version | Text Only | Print | Product List | Glossary Off
Versions: 1 2 3 4 5 6 7 8 9 10 11 12 13 14 15 16 17 18 19 20 21 22 23 24 25 26 27 28 29 30 31 32 33 34 35 36 37 38 39 40 41 42 43 44 45 46 47 48 49 50

000
ASUS45 KPSR 250500
RWRAZ

ARIZONA HOURLY REGIONAL WEATHER ROUNDUP
NATIONAL WEATHER SERVICE PHOENIX AZ
1000 PM MST SUN MAY 24 2015

NOTE: FAIR INDICATES FEW OR NO CLOUDS BELOW 12,000 FEET WITH NO
SIGNIFICANT WEATHER AND/OR OBSTRUCTIONS TO VISIBILITY.

AZZ001>003-036-250600-
NORTHWEST ARIZONA

CITY           SKY/WX    TMP DP  RH WIND       PRES   REMARKS
KINGMAN        MOCLDY    69  38  32 SW10      29.93R
$$

AZZ004>008-015-016-018-250600-
NORTH CENTRAL ARIZONA

CITY           SKY/WX    TMP DP  RH WIND       PRES   REMARKS
GRAND CANYON   LGT RAIN  47  45  93 SW5       30.07R
WILLIAMS       CLOUDY    48  41  76 SW6       30.13S
PRESCOTT       CLOUDY    57  35  43 S5        30.01R
FLAGSTAFF      NOT AVBL
PAYSON         PTCLDY    54  39  58 CALM      30.04R
PAGE           PTCLDY    61  48  62 CALM      29.92R
$$

AZZ009>014-017-250600-
NORTHEAST ARIZONA

CITY           SKY/WX    TMP DP  RH WIND       PRES   REMARKS
WINSLOW        NOT AVBL
SAINT JOHNS    PTCLDY    49  38  65 S3        30.03S
WINDOW ROCK    CLOUDY    50  37  61 SW12      30.06R
$$

AZZ023-250600-
GREATER PHOENIX AREA

CITY           SKY/WX    TMP DP  RH WIND       PRES   REMARKS
PHOENIX        CLEAR     77  40  26 SW3       29.83R
DEER VALLEY    CLEAR     74  35  24 CALM      29.85R
SCOTTSDALE     CLEAR     75  36  24 CALM      29.87R
MESA-GATEWAY   PTCLDY    73  37  27 CALM      29.87R
$$

AZZ027-028-250600-
SOUTHWEST MARICOPA COUNTY AND PINAL COUNTY

CITY           SKY/WX    TMP DP  RH WIND       PRES   REMARKS
CASA GRANDE    CLEAR     72  39  30 NW6       29.86R
$$

AZZ503-504-507>509-250600-
SOUTHEAST ARIZONA

CITY           SKY/WX    TMP DP  RH WIND       PRES   REMARKS
TUCSON         CLEAR     72  31  22 N8        29.93R
NOGALES        CLEAR     58  30  34 E3        29.99R
SAFFORD        PTCLDY    68  34  28 CALM      29.93R
$$

AZZ020-021-025-026-031-250600-
SOUTHWEST ARIZONA

CITY           SKY/WX    TMP DP  RH WIND       PRES   REMARKS
YUMA           CLEAR     78  41  26 S5        29.82R
$$

CAZ031-033-041-043-047-048-061-250600-
SOUTHERN CALIFORNIA

CITY           SKY/WX    TMP DP  RH WIND       PRES   REMARKS
DOWNTOWN L.A.  CLEAR     61  52  72 W3        29.97R
L.A. AIRPORT   PTCLDY    59  54  83 W9        29.98R
SAN DIEGO      PTCLDY    63  54  72 NW8       30.00R
BURBANK        CLEAR     62  48  60 S6        29.96R
ONTARIO        PTCLDY    61  52  72 W10       29.97R
RIVERSIDE      CLEAR     62  53  72 W5        29.97R
PALM SPRINGS   CLEAR     74  49  41 NW9       29.84R
EL CENTRO NAS  CLEAR     73  49  42 SW8       29.83R
IMPERIAL       CLEAR     73  50  44 W8        29.80R
BLYTHE         CLEAR     79  42  26 S9        29.81R
$$

NVZ020-UTZ003-250600-
SOUTHERN NEVADA-UTAH

CITY           SKY/WX    TMP DP  RH WIND       PRES   REMARKS
LAS VEGAS      CLOUDY    73  48  41 N13       29.84R THUNDER
SALT LAKE CITY TSTM      54  49  83 W3        29.93R
$$

NMZ009-TXZ055-250600-
NEW MEXICO-WEST TEXAS

CITY           SKY/WX    TMP DP  RH WIND       PRES   REMARKS
ALBUQUERQUE    LGT RAIN  55  42  61 W14G22    30.02R
EL PASO        CLOUDY    76  18  11 W14G22    29.88R
$$


........................KEY........................
SKY/WX - SKY CONDITION/WEATHER
TMP    - TEMPERATURE IN FAHRENHEIT
DP     - DEW POINT IN FAHRENHEIT
RH     - RELATIVE HUMIDITY IN PERCENT
WIND   - DIRECTION AND SPEED IN MILES PER HOUR (MPH)
VRB    - VARIABLE WIND DIRECTION
PRES   - MEAN SEA LEVEL PRESSURE IN INCHES OF MERCURY
         F - FALLING PRESSURE   R - RISING PRESSURE
         S - STEADY PRESSURE
VSB    - VISIBILITY IN MILES
HX     - HEAT INDEX IN FAHRENHEIT
WCI    - WIND CHILL INDEX IN FAHRENHEIT
TC     - TEMPERATURE IN CELSIUS WHICH IS ALSO KNOWN AS
         TEMPERATURE IN CENTIGRADE
AFB    - AIR FORCE BASE
         LUKE AFB IS LUKE AIR FORCE BASE
         DAVIS-MONTHAN IS DAVIS-MONTHAN AIR FORCE BASE
NAS    - NAVAL AIR STATION
         EL CENTRO NAS IS EL CENTRO NAVAL AIR STATION
N/A    - NOT AVAILABLE



USA.gov is the U.S. government's official web portal to all federal, state and local government web resources and services.